OE1TRI Weather Reports


time (UTC)temp
F
wind
direction
speed
knots
gust
knots
rain 1hr
in
rain 24hr
in
rain mn
in
humidity
%
barometer
mb
20260507035004 58 264 2.6 10.4 0.00 0.00 0.00 65 1015.9
20260507034005 58 302 7.0 12.2 0.00 0.00 0.00 65 1015.6
20260507033005 58 336 2.6 11.3 0.00 0.00 0.00 65 1016.3
20260507032004 58 350 6.1 10.4 0.00 0.00 0.00 65 1015.9
20260507031005 59 24 5.2 8.7 0.00 0.00 0.00 65 1015.9
20260507030005 59 296 6.1 8.7 0.00 0.00 0.00 65 1015.9
20260507024005 59 218 6.1 12.2 0.00 0.00 0.00 65 1015.6
20260507022005 59 288 4.3 7.0 0.00 0.00 0.00 66 1015.6
20260507020005 60 261 5.2 7.0 0.00 0.00 0.00 67 1015.6
20260507014004 60 177 4.3 6.1 0.00 0.00 0.00 69 1015.2
20260507013005 60 81 2.6 4.3 0.00 0.00 0.00 68 1015.6
20260507012005 60 275 1.7 4.3 0.00 0.00 0.00 68 1015.6
20260507011004 60 220 1.7 7.0 0.00 0.00 0.00 68 1015.2
20260507003004 61 13 2.6 6.1 0.00 0.00 0.00 67 1014.9
20260507002004 61 335 4.3 13.0 0.00 0.00 0.00 67 1014.9
20260507000005 62 32 4.3 7.8 0.00 0.00 0.00 67 1014.6
20260506233005 62 264 2.6 5.2 0.00 0.00 0.00 71 1014.6
20260506232004 62 258 5.2 10.4 0.00 0.00 0.00 71 1014.2
20260506231004 62 259 5.2 12.2 0.00 0.00 0.00 71 1014.6
20260506224005 64 321 2.6 7.0 0.00 0.00 0.00 64 1013.9
20260506223005 64 267 3.5 7.8 0.00 0.00 0.00 64 1013.5
20260506222005 64 24 2.6 7.0 0.00 0.00 0.00 63 1013.2
20260506221005 64 242 2.6 4.3 0.00 0.00 0.00 62 1012.9
20260506215006 65 82 0.0 2.6 0.00 0.00 0.00 63 1012.5
20260506212005 65 192 1.7 6.1 0.00 0.00 0.00 61 1012.2
20260506211005 66 225 4.3 7.0 0.00 0.00 0.00 61 1011.9
20260506210005 66 185 5.2 7.0 0.00 0.00 0.00 61 1011.5
20260506205005 66 176 4.3 8.7 0.00 0.00 0.00 60 1011.9
20260506204005 67 184 6.1 13.0 0.00 0.00 0.00 60 1011.9
20260506201005 67 107 4.3 12.2 0.00 0.00 0.00 59 1011.2
20260506200005 67 117 7.0 12.2 0.00 0.00 0.00 58 1011.5
20260506195005 68 158 2.6 7.0 0.00 0.00 0.00 58 1011.2
20260506194004 68 354 6.1 8.7 0.00 0.00 0.00 57 1011.2
20260506193005 68 203 5.2 7.8 0.00 0.00 0.00 57 1011.2
20260506192005 68 90 1.7 8.7 0.00 0.00 0.00 57 1010.8
20260506190005 69 267 7.0 8.7 0.00 0.00 0.00 56 1010.8
20260506185005 69 172 2.6 7.8 0.00 0.00 0.00 55 1010.8
20260506184005 69 126 5.2 7.8 0.00 0.00 0.00 55 1010.5
20260506183005 70 209 4.3 8.7 0.00 0.00 0.00 54 1010.5
20260506182005 70 108 5.2 8.7 0.00 0.00 0.00 54 1010.5
20260506181005 71 258 2.6 7.0 0.00 0.00 0.00 53 1010.2
20260506180005 71 131 2.6 6.1 0.00 0.00 0.00 52 1010.5
20260506174005 72 130 2.6 13.0 0.00 0.00 0.00 52 1010.2
20260506173005 72 80 7.8 13.0 0.00 0.00 0.00 51 1010.2
20260506172005 73 74 7.0 13.0 0.00 0.00 0.00 51 1010.2
20260506171004 73 129 5.2 12.2 0.00 0.00 0.00 50 1010.2
20260506170004 73 98 5.2 7.8 0.00 0.00 0.00 50 1010.2
20260506165005 74 144 3.5 7.0 0.00 0.00 0.00 48 1010.2
20260506162005 74 64 8.7 13.9 0.00 0.00 0.00 47 1010.5
20260506160005 74 179 2.6 12.2 0.00 0.00 0.00 48 1010.5
20260506155005 75 222 2.6 12.2 0.00 0.00 0.00 47 1010.5
20260506154005 75 180 7.0 12.2 0.00 0.00 0.00 46 1010.5
20260506153005 76 226 7.8 14.8 0.00 0.00 0.00 45 1010.5
20260506152005 76 254 5.2 13.9 0.00 0.00 0.00 45 1010.5
20260506150005 76 235 7.0 10.4 0.00 0.00 0.00 44 1010.5
20260506145005 76 233 2.6 12.2 0.00 0.00 0.00 43 1010.5
20260506144004 76 198 7.0 11.3 0.00 0.00 0.00 42 1010.5
20260506143005 77 129 7.8 13.9 0.00 0.00 0.00 42 1010.8
20260506142005 77 101 11.3 13.9 0.00 0.00 0.00 42 1010.5
20260506141005 77 128 7.8 15.6 0.00 0.00 0.00 41 1010.8
20260506140005 77 126 8.7 15.6 0.00 0.00 0.00 41 1010.8
20260506135005 78 167 5.2 8.7 0.00 0.00 0.00 40 1011.2
20260506134005 78 146 6.1 10.4 0.00 0.00 0.00 40 1011.2
20260506132005 76 177 6.1 8.7 0.00 0.00 0.00 42 1011.5
20260506131004 75 163 1.7 11.3 0.00 0.00 0.00 42 1011.2
20260506125004 76 152 8.7 15.6 0.00 0.00 0.00 41 1011.9
20260506123005 75 157 7.0 10.4 0.00 0.00 0.00 41 1012.2
20260506122005 76 129 2.6 5.2 0.00 0.00 0.00 43 1012.2
20260506121004 75 111 0.9 5.2 0.00 0.00 0.00 44 1012.5
20260506120005 74 84 2.6 7.8 0.00 0.00 0.00 44 1012.5
20260506113004 74 90 8.7 12.2 0.00 0.00 0.00 45 1013.2
20260506112005 74 111 1.7 8.7 0.00 0.00 0.00 46 1012.9
20260506110005 74 121 4.3 12.2 0.00 0.00 0.00 46 1013.2
20260506105005 74 176 6.1 13.0 0.00 0.00 0.00 48 1013.2
20260506104004 74 65 7.0 13.0 0.00 0.00 0.00 47 1013.2
20260506103005 73 153 6.1 10.4 0.00 0.00 0.00 47 1013.5
20260506101004 74 20 4.3 8.7 0.00 0.00 0.00 50 1013.9
20260506100005 74 149 5.2 8.7 0.00 0.00 0.00 51 1014.2
20260506095005 73 107 4.3 13.0 0.00 0.00 0.00 49 1013.9
20260506094005 74 139 5.2 13.0 0.00 0.00 0.00 47 1014.2
20260506093005 73 135 6.1 10.4 0.00 0.00 0.00 47 1014.2
20260506091005 75 85 1.7 4.3 0.00 0.00 0.00 49 1014.2
20260506090005 76 58 2.6 6.1 0.00 0.00 0.00 47 1014.6
20260506085004 76 358 2.6 4.3 0.00 0.00 0.00 46 1014.2
20260506084004 77 34 2.6 4.3 0.00 0.00 0.00 44 1014.2
20260506083005 76 233 1.7 2.6 0.00 0.00 0.00 46 1014.2
20260506082004 74 124 0.9 4.3 0.00 0.00 0.00 48 1014.6
20260506081005 73 56 2.6 5.2 0.00 0.00 0.00 48 1014.6
20260506072005 74 94 0.9 1.7 0.00 0.00 0.00 48 1014.9
20260506062004 68 46 2.6 4.3 0.00 0.00 0.00 55 1015.2
20260506061005 67 256 0.9 1.7 0.00 0.00 0.00 57 1014.9
20260506051004 65 306 2.6 4.3 0.00 0.00 0.00 62 1014.9
20260506045005 63 70 0.0 2.6 0.00 0.00 0.00 66 1014.9
20260506042004 62 189 1.7 5.2 0.00 0.00 0.00 69 1014.8
20260506040005 61 61 1.7 2.6 0.00 0.00 0.00 70 1014.6